This demonstration page uses our WeatherBlox Daily Observations layout. Learn more.

Left ArrowRight Arrow

53.62937, 11.41316

Hourly Observations for October 8, 2015

Temp ( °F °C ) Dew Point ( °F °C ) Humidity (%) Winds ( mph kmh ) Pressure ( in mb ) Visibility ( mi km ) Precip ( " mm )
8:20 am 08:20 Cloudy with Light Rain 45 7 45 7 100 100 E 7 11 30.03 1017 1 2 N/A
8:50 am 08:50 Mostly Cloudy with Light Rain 45 7 45 7 100 100 E 8 13 30.06 1018 1 2 N/A
9:20 am 09:20 Mostly Cloudy with Drizzle 45 7 45 7 100 100 E 8 13 30.06 1018 1 2 N/A
9:50 am 09:50 Mostly Cloudy with Light Rain 45 7 45 7 100 100 E 8 13 30.06 1018 2 3 N/A
10:20 am 10:20 Mostly Cloudy with Mist and Fog 45 7 45 7 100 100 ESE 5 7 30.06 1018 2 3 N/A
10:50 am 10:50 Cloudy with Mist and Fog 46 8 45 7 93 93 ESE 6 9 30.06 1018 3 5 N/A
11:20 am 11:20 Cloudy with Mist and Fog 46 8 45 7 93 93 ESE 6 9 30.09 1019 2 4 N/A
11:50 am 11:50 Mostly Cloudy with Light Rain 46 8 45 7 93 93 ESE 6 9 30.09 1019 2 4 N/A
12:20 pm 12:20 Cloudy with Mist and Fog 46 8 45 7 93 93 ESE 7 11 30.09 1019 2 4 N/A
12:50 pm 12:50 Cloudy with Mist and Fog 46 8 45 7 93 93 ESE 7 11 30.09 1019 2 4 N/A
1:20 pm 13:20 Cloudy with Mist and Fog 46 8 45 7 93 93 ESE 6 9 30.09 1019 2 4 N/A
1:50 pm 13:50 Cloudy with Mist and Fog 46 8 45 7 93 93 ESE 6 9 30.09 1019 2 3 N/A
2:20 pm 14:20 Cloudy with Mist and Fog 46 8 45 7 93 93 ESE 5 7 30.09 1019 1 2 N/A
2:50 pm 14:50 Cloudy with Mist and Fog 46 8 46 8 100 100 E 6 9 30.09 1019 2 3 N/A
3:20 pm 15:20 Cloudy 46 8 46 8 100 100 ESE 7 11 30.09 1019 4 6 N/A
3:50 pm 15:50 Cloudy 48 9 46 8 94 94 ESE 6 9 30.12 1020 4 7 N/A
4:20 pm 16:20 Cloudy 48 9 46 8 94 94 E 7 11 30.12 1020 4 7 N/A
4:50 pm 16:50 Cloudy with Light Rain 48 9 46 8 94 94 E 8 13 30.12 1020 3 5 N/A
5:20 pm 17:20 Cloudy 46 8 46 8 100 100 E 7 11 30.12 1020 4 6 N/A
5:50 pm 17:50 Mostly Cloudy 46 8 46 8 100 100 ESE 6 9 30.12 1020 4 6 N/A

Powered by AerisWeather